THOR ABLESTAR DEB, 469

Orbit data source: Space-Track

THOR ABLESTAR DEB, 469 is space debris in LEO originally from a launch on Thu, 29 Jun 1961 UTC launched from the Air Force Eastern Test Range (AFETR). Debris objects in space refer to the collection of defunct objects orbiting the Earth. Examples of debris include non-operational satellites, rocket bodies, and fragments generated from explosions, collisions, or faulty payload assembly.

Loading next visibility...
Identifier
469, 1961-015FF
Orbit
LEO
Country
Flag of USUS
Related business
Manufacturer
Unknown
Mission
Spacecraft
Bus & Motor
Unknown
Mass
Unknown
Launch date (UTC)
1961-06-29 (65 years ago)
Launch vehicle
Unknown
Launch site
Air Force Eastern Test Range (AFETR)
Object type
Payload
Rocket body
Debris
Shape & HBR
Unknown shape, 0.1 m
Radar Cross Section
Small (<0.1 m²)

Expand to show TLE details & history
Last TLE update: 20 hours ago

TLE from 20 hours ago
0 THOR ABLESTAR DEB
1 00469U 61015FF  26123.72294290  .00001146  00000-0  42172-3 0  9992
2 00469  66.8324 272.2485 0062872 231.8169 127.7260 14.35055084346637
Epoch: 2026-05-03T17:21Z
TLE epoch observation values (Epoch: 2026-05-03T17:21:02.266Z)
Latitude
-0.00004°
Longitude
150.36663°
Altitude
804.703 km
Speed
7.437 km/s
True Right ascension
18h 08m 59s
True Declination
0° 00' 00"
Sunlit
Object was in full shadow at epoch
Visualization orbit readout
Latitude
Unknown
Longitude
Unknown
Altitude
Unknown
Speed
Unknown
Apparent Right ascension
Unknown
Apparent Declination
Unknown
Sunlit
N/A
Visualization observer readout
Local Sidereal Time
21:18:58
Azimuth
Unknown
Elevation
Unknown
Doppler factor
Unknown
Orbital elements
Apogee altitude
818.201 km
Perigee altitude
728.277 km
Semi-major axis
7,151.376 km
Eccentricity
0.00629
Inclination
66.8324°
RAAN
272.2485°
Arg. of periapsis
231.8169°
True anomaly
128.29311°
Mean anomaly
127.726°
Eccentric anomaly
128.00983°
Mean motion
3.58888 °/min
Orbital period
100.31 mins
BSTAR
0.00042172
Loading maneuver chart data...
Computing Atmospheric mass density...
Loading historical data...
Loading historical data...
Loading historical data...
Loading historical data...
Loading historical data...
Loading historical data...
Loading historical data...

Documentation

Showing up to 5 results
|